Location: Risskov
(56.1972°N, 10.2480°E)
Time: 13:15:26
(UTC+00:00)

Cosmos 2341 Rocket - Pass Details

Date: 05 July 2020
Orbit: 968 x 1004 km, 82.9° (Epoch: 06 August)

Event Time Altitude Azimuth Distance (km) Brightness Sun altitude
Exits shadow 23:11:49 11° 203° (SSW) 2,673 5.7 -11.1°
Maximum altitude 23:17:52 66° 285° (WNW) 1,059 4.3 -11.1°
Drops below altitude 10° 23:24:05 10° 9° (N) 2,726 7.9 -11.1°
Sets 23:26:38 0° 12° (NNE) 3,676 8.9 -11.1°
